Location: Glion
(46.4330°N, 6.9246°E)
Time: 08:07:52
(UTC+00:00)

Cosmos 1503 Rocket - Pass Details

Date: 03 March 2021
Orbit: 753 x 790 km, 74.0° (Epoch: 14 April)

Event Time Altitude Azimuth Distance (km) Brightness Sun altitude
Rises 18:29:02 0° 338° (NNW) 3,231 7.6 -12.5°
Reaches altitude 10° 18:31:26 10° 340° (NNW) 2,297 6.8 -12.9°
Maximum altitude 18:36:39 82° 69° (ENE) 768 3.9 -13.8°
Drops below altitude 10° 18:41:48 10° 157° (SSE) 2,271 6.2 -14.6°
Sets 18:44:09 0° 158° (SSE) 3,192 6.9 -15.0°
